Vorticity
5 5 6 6 5 5 5 3 2 2 1 1 -0 -1 -1 -1 -1 -1 -1 -1 -0 1 2 4 5 7 11 17 24 28 27 22 19 17 16 15 14 14 15 14 13 13 15 16 16 16 17 17 16 15 12 9 5 2 -1 1 5 10 14 14 9 3 -3 -3 -3 -3 -4 -3 0 4 7 10 12 16 19 21 22 21 19 17 15 14 12 12 12 13
4 4 4 4 4 3 3 2 1 0 0 0 -0 -1 -1 -2 -2 -2 -2 -2 -1 -0 1 3 4 6 8 11 16 21 24 21 17 14 14 14 15 15 15 15 14 15 17 18 18 17 17 18 18 19 17 15 12 9 6 4 5 7 9 10 9 7 2 -2 -6 -8 -8 -6 -3 1 3 4 5 7 10 13 16 18 18 17 16 14 13 13 12 12
3 3 3 3 3 2 2 2 1 -0 -0 -0 -1 -1 -2 -2 -2 -1 -1 -1 -1 -1 0 1 3 6 9 11 13 16 19 19 17 14 11 12 13 15 17 18 19 20 23 23 22 20 17 18 20 21 21 20 19 16 13 10 9 8 8 8 9 10 9 4 -1 -5 -6 -4 -1 2 3 3 2 3 4 6 8 10 12 14 16 17 15 13 12 12
2 2 2 2 2 2 2 1 1 0 -0 -1 -1 -1 -2 -2 -1 -1 -1 -1 -0 -0 0 1 3 5 9 12 14 15 16 17 16 14 10 9 10 12 15 18 22 25 29 29 27 24 19 19 21 23 25 24 23 20 18 15 13 11 10 9 9 10 12 11 8 4 1 3 5 7 8 5 4 3 3 3 3 3 5 10 14 17 17 14 11 10
3 3 3 3 3 2 2 2 1 1 0 -0 -1 -1 -1 -1 -1 -0 -0 -0 0 1 2 3 4 6 9 13 16 17 17 16 15 14 11 9 8 9 12 15 18 22 27 30 31 30 25 24 24 25 27 27 25 23 20 18 15 13 11 9 8 8 10 12 12 11 9 9 11 12 13 10 8 5 4 3 2 2 4 9 13 15 16 14 11 9
6 5 5 4 4 4 4 3 3 2 2 1 0 0 -0 -0 -0 0 0 1 1 2 3 5 7 9 11 14 17 19 20 18 16 14 11 9 8 8 9 12 14 16 19 24 28 30 29 27 26 27 28 27 27 25 22 21 17 14 12 10 8 7 7 9 11 12 12 12 13 13 14 13 12 10 8 6 4 3 5 11 13 14 14 14 12 11
10 9 9 8 8 7 6 6 5 4 4 3 3 2 1 1 1 1 2 2 3 5 6 9 11 13 15 17 19 20 22 20 18 15 12 9 8 7 8 10 11 12 13 16 19 22 22 22 22 23 24 24 24 25 24 24 22 19 16 13 11 8 7 7 8 9 10 11 11 12 12 13 13 13 11 9 6 5 6 11 13 13 13 13 12 13
13 13 13 13 12 11 11 10 9 9 8 7 7 6 6 5 5 5 6 7 9 10 12 14 16 18 19 20 21 21 22 22 20 17 13 10 8 7 7 9 10 11 11 12 13 14 13 13 13 14 15 16 17 19 21 23 24 24 23 19 16 13 10 9 8 8 8 9 9 9 10 11 12 13 13 11 8 6 5 8 9 10 11 12 12 12
16 15 15 15 15 15 14 14 14 14 13 13 13 13 13 12 12 12 13 14 16 17 19 20 21 22 22 22 22 22 22 23 22 19 16 12 10 8 7 8 9 11 12 11 11 10 9 8 8 8 9 9 10 11 13 18 22 25 26 25 22 18 14 12 11 11 11 10 10 9 10 10 11 13 13 13 11 8 4 1 1 3 7 11 11 11
19 18 18 17 17 17 17 17 17 17 17 17 17 18 18 19 19 19 20 20 22 23 23 24 24 23 23 23 23 23 22 23 23 21 18 14 11 9 8 8 8 10 11 12 11 10 8 7 7 7 7 7 7 8 9 12 17 22 26 27 26 23 19 15 13 13 13 13 12 11 11 11 11 12 14 14 14 11 5 -3 -6 -5 1 7 10 10
25 24 23 21 20 19 18 18 18 18 19 19 19 20 20 21 22 23 23 24 24 24 25 24 24 24 23 23 23 23 22 22 22 22 20 17 13 10 9 8 8 9 10 11 11 11 9 8 7 7 7 7 7 7 7 10 14 19 23 26 27 26 23 19 16 14 13 13 13 12 12 11 11 12 13 15 16 15 11 2 -4 -7 -3 2 6 8
30 29 28 26 24 23 21 20 20 19 19 19 19 20 20 21 21 22 22 23 23 23 23 23 23 23 23 22 22 22 22 22 22 22 22 19 15 12 9 9 9 9 10 11 11 11 10 9 8 8 8 8 8 8 8 10 13 16 19 23 27 28 27 23 19 16 13 12 12 12 11 11 11 12 13 15 16 17 16 11 5 1 -1 0 2 4
33 32 31 30 29 27 26 25 23 22 21 21 21 21 22 21 21 21 21 21 21 22 22 22 22 22 22 22 21 21 21 21 21 22 22 21 18 15 11 9 9 9 10 11 12 12 12 11 10 9 9 9 9 9 10 12 14 15 16 20 24 28 29 27 23 19 15 12 11 10 10 11 11 12 13 14 15 17 18 18 16 12 7 3 1 2
33 32 32 31 31 30 30 29 28 26 25 24 23 23 23 22 22 21 21 20 20 20 20 20 21 21 22 22 21 21 20 20 21 21 22 22 20 18 14 11 9 9 10 11 12 13 13 13 12 12 11 11 11 11 12 13 14 15 15 18 21 25 28 28 26 23 18 14 11 9 9 10 11 12 13 13 14 15 17 20 21 20 16 8 4 2
32 32 32 31 31 31 31 30 29 28 27 26 26 25 24 23 22 21 21 21 20 20 19 19 20 20 21 21 21 20 20 20 20 20 21 22 22 20 17 13 10 8 8 9 11 12 12 13 13 13 12 12 11 11 12 13 14 14 14 16 19 22 25 27 27 25 21 15 11 8 8 9 11 12 12 12 12 13 15 19 22 23 21 13 8 4
30 31 31 32 32 31 31 30 30 29 29 27 26 25 24 24 23 22 21 21 20 19 19 19 19 20 21 21 21 20 20 19 19 20 21 22 23 22 20 16 12 9 8 8 9 10 11 11 12 13 13 12 12 11 12 12 13 13 13 14 16 18 21 23 25 24 21 16 11 8 7 9 10 11 11 11 10 11 12 16 21 24 24 18 12 6
29 30 30 31 31 31 30 29 29 29 29 28 27 26 25 24 23 22 22 21 20 20 19 19 19 19 20 21 21 21 20 19 19 20 21 22 23 24 22 19 15 12 8 7 7 8 8 9 10 11 12 12 12 12 11 12 12 12 12 12 13 15 17 20 21 21 19 14 10 7 7 9 10 11 11 10 9 9 10 13 18 22 25 22 17 10
29 29 30 30 30 30 29 29 28 28 28 28 27 26 25 24 23 22 22 21 20 20 20 19 19 19 20 21 21 22 21 20 19 20 20 22 23 24 24 22 18 15 10 7 6 6 7 8 9 10 10 11 11 11 11 11 11 11 11 11 11 12 14 17 18 18 15 12 8 6 6 8 10 11 11 9 8 8 8 10 13 18 22 23 20 14
28 28 29 29 29 29 29 28 28 28 28 27 26 26 25 23 22 22 22 21 21 20 20 20 19 19 19 20 21 21 21 21 20 20 20 22 23 24 25 24 21 18 12 8 6 6 6 7 7 8 9 9 10 10 10 10 10 10 10 10 10 11 13 15 15 14 13 10 7 5 5 8 11 13 12 10 8 6 5 5 7 12 18 21 21 18
28 27 26 27 29 29 28 26 26 26 26 26 26 25 25 24 23 22 21 21 21 20 19 19 19 19 19 19 20 20 21 21 21 21 21 22 23 24 24 25 24 21 16 11 8 6 6 6 6 7 7 8 8 9 9 9 9 9 9 9 10 11 12 14 14 13 11 9 6 5 5 9 13 15 14 11 8 5 3 1 2 6 12 17 20 19
26 25 24 25 26 26 26 24 23 23 24 25 25 25 24 24 23 22 21 20 20 20 19 19 19 19 19 20 20 20 20 21 21 21 21 21 22 23 23 24 25 24 20 14 10 7 5 5 5 6 6 7 7 8 9 9 9 9 9 9 9 11 12 14 14 14 12 10 8 6 7 11 16 19 18 14 9 4 1 -0 -0 2 7 12 16 18
24 24 24 23 23 23 23 23 23 22 23 23 23 23 24 23 22 21 20 20 21 21 20 20 20 20 20 20 20 20 20 20 21 21 21 21 22 23 23 24 25 24 23 18 13 9 6 5 4 5 5 6 7 8 9 9 9 9 9 9 10 11 12 14 14 15 14 13 12 12 12 17 21 23 23 18 12 6 1 -0 0 2 5 8 12 15
22 23 23 22 22 21 22 22 22 22 21 21 21 21 22 22 22 22 21 21 21 21 21 20 20 20 20 20 21 21 20 20 21 21 21 21 22 23 23 24 24 24 24 21 17 13 8 5 4 4 5 6 7 8 8 9 9 9 9 10 10 11 12 13 14 16 17 19 20 20 20 22 25 28 28 24 17 9 4 3 3 4 6 7 10 12
22 22 22 21 21 21 21 21 21 21 20 20 20 20 20 20 20 21 21 21 21 21 21 21 21 21 21 21 22 22 21 21 21 21 20 20 21 22 22 23 24 25 24 23 20 16 12 8 6 5 5 5 6 7 8 8 9 9 10 10 11 11 12 13 14 16 19 22 25 25 25 26 27 30 31 28 22 15 10 9 9 9 10 10 11 12
21 21 21 20 20 20 20 20 20 20 21 20 20 20 20 20 20 19 20 20 20 21 22 22 22 22 22 22 22 22 22 22 22 22 21 20 21 21 21 22 24 25 25 24 22 19 15 11 8 6 5 5 6 7 7 8 9 9 10 10 11 11 11 12 13 15 17 20 23 24 24 25 26 28 30 29 26 22 18 18 18 18 17 15 14 14
19 19 19 19 19 19 19 19 20 20 20 20 20 20 20 20 20 20 19 19 20 21 22 21 21 21 22 22 22 22 22 23 22 22 21 21 21 21 21 21 23 24 25 25 24 22 18 13 10 7 6 6 6 7 7 8 8 9 9 10 10 11 10 11 11 12 13 16 18 19 21 22 24 25 27 27 26 26 25 26 26 25 23 20 18 17
17 17 17 17 18 18 18 19 19 19 19 19 19 19 20 20 20 19 18 19 19 20 21 21 21 21 22 22 22 22 22 23 23 23 22 21 21 21 20 21 22 24 25 25 25 24 21 17 13 10 8 8 8 8 7 8 8 8 9 9 10 10 10 10 10 10 11 13 15 17 19 20 21 22 23 24 25 26 27 28 28 27 24 21 20 20
16 16 16 16 16 17 17 17 17 17 17 17 18 18 19 20 19 18 18 19 19 20 20 20 21 21 21 21 22 23 23 23 24 24 23 21 21 20 20 21 22 23 24 25 25 25 23 20 17 14 11 10 10 9 8 8 8 8 9 9 9 10 10 9 9 10 10 12 14 15 17 17 18 18 19 20 22 24 25 25 25 23 21 20 20 21
17 16 16 16 16 16 16 16 16 16 16 16 16 16 17 17 17 17 18 19 20 20 20 20 20 21 22 22 23 23 24 25 25 24 24 22 21 21 21 21 21 22 24 25 26 26 24 23 20 18 15 13 12 11 10 9 9 8 8 9 9 9 9 9 9 10 10 12 13 14 15 15 15 16 17 18 19 20 21 21 20 20 20 20 21 22
18 18 17 17 16 15 15 15 15 15 15 15 15 15 16 15 16 16 18 19 19 20 20 20 21 21 22 23 24 25 27 27 26 25 24 23 22 22 22 21 21 22 24 25 27 27 26 25 23 21 19 17 15 13 12 11 10 9 9 9 9 9 9 9 9 10 10 11 12 12 12 13 13 14 15 16 17 17 17 18 18 19 20 21 21 21
20 20 19 18 17 16 16 15 15 15 15 15 15 15 15 15 15 16 17 18 19 19 20 20 21 22 23 24 25 26 27 26 25 25 24 23 23 23 22 22 22 22 23 24 26 28 28 28 27 24 22 20 18 16 15 13 12 10 9 9 9 9 9 9 9 10 10 10 11 11 11 12 13 14 15 15 15 15 16 17 18 19 19 19 18 18
21 21 20 20 19 18 17 16 16 15 15 15 14 14 14 15 15 16 17 17 18 19 20 21 21 22 23 24 25 25 25 23 23 23 23 23 23 23 23 22 22 23 23 23 24 26 27 28 28 28 26 23 21 20 18 16 14 12 10 9 9 9 9 9 10 10 10 10 10 10 11 12 13 14 15 15 15 15 16 17 17 16 15 13 13 16
21 21 21 21 20 19 18 17 17 16 16 15 15 14 14 15 15 16 16 17 18 19 21 22 23 24 24 25 25 25 25 22 21 21 22 22 22 22 22 22 22 22 22 23 23 24 25 26 27 27 28 26 25 23 22 19 16 13 11 10 9 9 10 10 10 10 10 10 10 10 12 13 15 15 16 16 16 17 18 17 16 13 10 9 12 16
22 22 22 21 21 20 19 18 18 17 16 16 16 16 16 16 16 16 16 17 17 18 20 22 23 25 26 25 24 24 24 21 21 21 21 21 21 21 21 21 21 21 21 22 23 24 25 25 25 25 26 27 26 26 25 22 19 16 12 11 10 10 11 11 11 10 10 10 10 11 13 15 15 16 16 16 17 18 18 16 14 11 9 11 14 17
23 23 22 22 21 20 20 19 18 18 17 17 17 17 17 17 17 17 17 17 18 18 19 19 21 22 24 23 23 22 21 20 21 21 21 21 20 20 20 20 21 20 20 21 22 23 24 25 25 24 24 26 27 27 27 25 22 19 15 12 11 11 12 12 12 11 11 11 11 12 14 14 14 14 13 14 15 16 16 15 14 13 12 14 16 17
23 23 23 22 22 21 20 20 19 19 18 18 18 18 18 18 18 18 18 19 19 19 19 19 19 19 20 21 20 19 17 18 20 21 20 20 20 20 20 20 19 19 19 20 20 21 22 23 24 25 25 25 25 27 29 28 25 21 18 15 13 13 13 13 12 12 11 11 11 12 13 12 11 9 9 10 11 12 14 14 14 15 15 16 17 16
24 23 23 23 23 22 22 21 21 20 20 20 20 20 20 19 19 19 19 19 19 19 19 18 18 18 18 19 19 18 18 19 20 21 20 20 20 20 20 19 18 18 18 18 19 19 20 21 23 24 25 25 24 26 29 30 27 24 21 19 17 16 15 14 13 12 12 12 12 12 12 11 9 8 9 10 11 12 13 14 15 16 16 16 16 14
25 24 24 24 24 24 24 23 23 23 22 22 21 21 20 19 19 18 18 18 18 17 17 17 17 17 17 18 19 21 22 22 21 21 20 20 20 20 19 18 18 17 17 17 17 18 18 20 21 22 24 25 25 26 27 29 29 27 24 22 20 18 17 16 14 13 13 13 13 13 12 12 12 13 15 15 15 15 15 15 16 16 16 15 14 13
26 26 26 26 26 26 26 25 24 24 23 21 20 19 18 17 17 16 16 15 15 15 15 16 16 17 17 19 20 22 23 22 22 21 20 19 19 19 18 18 16 16 16 16 17 17 17 19 20 21 23 24 25 26 26 27 27 27 26 24 21 19 18 17 16 16 15 16 15 15 15 16 17 17 17 17 17 17 17 17 16 15 14 13 11 10
28 28 28 28 27 25 24 23 21 20 19 17 16 15 14 14 14 13 13 13 13 13 14 15 16 17 18 19 20 22 23 22 21 20 19 18 17 17 16 16 15 15 16 16 17 17 17 19 20 21 22 23 24 25 24 24 24 24 24 23 21 20 19 19 18 18 17 17 17 18 18 19 18 16 14 15 15 16 17 17 16 14 12 10 9 8
30 29 28 25 23 20 18 17 15 14 13 13 13 12 12 12 12 12 12 11 11 11 12 14 15 16 16 16 18 19 21 21 20 19 17 16 16 15 15 14 14 15 16 17 17 18 19 20 21 22 22 22 23 22 22 21 21 21 21 20 20 20 20 19 18 18 18 18 18 19 18 16 13 11 10 12 14 15 17 16 14 12 10 8 8 7
28 24 21 18 15 14 13 12 11 11 11 12 12 12 13 13 14 14 13 12 11 11 12 13 15 17 17 17 16 17 17 17 17 17 16 15 15 15 15 14 15 16 18 19 20 20 21 22 22 22 22 23 22 21 20 19 19 18 18 19 20 20 19 18 17 16 16 17 18 17 14 10 8 7 8 11 13 15 15 13 12 10 9 8 7 7
20 16 12 11 10 10 11 11 11 11 12 12 12 12 13 14 15 15 15 14 13 13 12 12 13 15 17 19 20 18 15 15 15 16 16 16 16 16 16 16 17 19 21 23 24 24 25 25 24 23 23 22 21 20 19 19 18 17 17 17 17 17 15 14 14 14 14 15 14 12 8 6 5 6 9 11 13 14 13 11 10 8 7 7 7 7
11 10 9 9 10 10 11 11 11 12 13 13 13 13 13 13 14 14 13 13 12 12 12 12 13 13 14 16 19 20 19 18 17 17 17 17 18 18 19 19 20 22 23 25 27 29 29 27 24 23 22 20 18 16 15 15 15 15 14 14 13 13 13 14 14 13 12 10 8 6 5 5 7 9 11 11 11 11 10 9 8 7 6 5 5 5
9 9 9 10 11 11 11 10 11 11 12 12 13 14 15 15 15 14 13 13 12 12 11 14 15 15 14 15 18 21 23 23 22 20 20 20 20 20 20 21 22 22 21 22 23 24 24 22 20 17 15 13 11 10 10 11 11 12 12 12 12 12 13 14 14 13 11 8 5 4 5 7 9 10 11 11 10 8 7 7 6 6 6 5 4 4
12 12 12 13 13 12 12 12 11 11 11 11 12 13 15 16 16 15 15 16 15 15 16 17 17 17 18 20 21 22 23 23 22 21 21 21 20 19 18 18 19 19 18 16 15 12 10 7 5 4 3 4 5 7 9 11 13 13 13 13 13 13 14 14 13 11 9 7 6 6 7 9 9 9 9 9 8 7 6 6 6 6 7 7 6 5
15 16 16 15 14 13 13 13 14 14 13 12 12 13 14 14 14 14 15 16 17 19 21 21 19 18 19 21 22 22 22 21 20 19 17 17 17 17 16 16 15 14 12 10 6 2 -2 -4 -4 -2 2 6 10 13 16 17 18 17 17 15 14 12 11 11 9 8 8 7 7 8 9 9 9 8 7 7 6 6 7 7 8 9 9 9 9 8
13 13 12 11 10 9 9 11 13 15 15 15 14 13 13 13 12 13 14 17 19 21 23 22 20 19 19 20 20 20 19 18 17 16 14 14 15 16 16 15 13 9 5 2 -1 -2 -3 1 5 10 15 18 21 22 23 21 18 16 14 12 9 7 6 6 6 7 7 7 8 9 10 10 10 10 10 9 8 9 10 11 12 13 13 13 13 13
8 7 5 4 4 5 7 10 13 15 16 16 15 14 12 12 12 14 17 20 22 23 22 21 20 20 19 20 19 18 15 14 13 13 13 14 16 15 13 9 5 2 -0 0 2 4 8 13 17 19 21 21 21 20 18 15 12 9 7 5 3 3 3 5 7 8 10 10 11 12 12 13 13 14 15 15 16 17 17 18 19 19 19 19 18 18
5 4 4 4 5 7 11 15 17 18 19 19 18 16 15 15 16 18 20 23 23 22 19 19 19 19 19 19 18 16 14 13 13 13 13 13 12 8 3 -1 -3 -2 1 6 10 14 17 19 19 18 16 14 13 13 11 9 6 4 3 4 4 6 9 12 15 17 18 18 19 19 19 20 21 21 21 22 23 24 25 24 24 24 23 23 22 21
6 6 7 9 11 14 18 21 22 23 23 22 21 20 19 19 20 21 23 22 21 20 19 19 18 17 17 17 16 14 13 13 14 13 12 7 2 -3 -6 -6 -2 3 9 14 17 19 20 21 21 20 19 15 14 13 14 15 15 14 14 15 17 19 21 24 26 27 26 26 26 25 25 25 25 26 25 26 26 26 26 25 24 24 23 22 21 20
Height
5407 5407 5408 5409 5410 5410 5409 5410 5410 5409 5407 5407 5408 5408 5407 5407 5407 5406 5406 5407 5406 5406 5406 5407 5407 5407 5407 5407 5408 5407 5407 5408 5408 5408 5408 5408 5408 5408 5408 5409 5410 5411 5411 5412 5413 5415 5416 5418 5420 5422 5423 5425 5427 5428 5430 5432 5434 5436 5437 5438 5439 5441 5442 5444 5446 5448 5450 5452 5454 5456 5459 5461 5463 5465 5467 5468 5470 5472 5474 5476 5479 5482 5484 5486 5486 5486
5400 5400 5400 5401 5402 5402 5401 5402 5402 5402 5400 5399 5400 5400 5400 5399 5399 5399 5399 5400 5399 5399 5399 5399 5400 5401 5401 5401 5402 5402 5402 5401 5401 5401 5402 5402 5402 5402 5402 5402 5403 5404 5405 5406 5407 5407 5409 5411 5412 5415 5417 5419 5421 5422 5424 5426 5427 5429 5431 5431 5432 5434 5436 5437 5439 5441 5443 5446 5448 5450 5452 5455 5457 5459 5461 5463 5465 5467 5468 5470 5472 5475 5479 5483 5486 5486
5392 5392 5392 5393 5394 5393 5392 5393 5394 5394 5392 5391 5391 5392 5392 5392 5392 5392 5392 5392 5392 5392 5392 5392 5392 5393 5394 5395 5395 5395 5395 5395 5394 5395 5395 5395 5395 5395 5396 5396 5397 5398 5399 5399 5400 5401 5402 5403 5405 5407 5410 5413 5416 5418 5419 5420 5421 5422 5424 5425 5426 5427 5429 5431 5433 5435 5437 5439 5442 5444 5447 5449 5451 5453 5455 5457 5460 5462 5463 5465 5467 5469 5472 5475 5479 5482
5383 5383 5382 5384 5385 5385 5385 5385 5385 5385 5385 5384 5383 5383 5384 5384 5383 5383 5384 5384 5384 5384 5384 5385 5385 5386 5386 5387 5388 5388 5388 5388 5388 5388 5388 5388 5388 5389 5389 5390 5391 5391 5392 5393 5394 5394 5395 5397 5398 5401 5404 5407 5410 5411 5412 5412 5414 5415 5417 5418 5419 5421 5422 5425 5427 5429 5431 5433 5436 5438 5441 5443 5445 5447 5450 5452 5454 5456 5458 5460 5462 5464 5466 5468 5472 5475
5374 5374 5373 5374 5375 5375 5376 5377 5377 5376 5376 5376 5375 5375 5375 5375 5375 5375 5375 5376 5376 5376 5376 5377 5377 5378 5378 5379 5380 5381 5381 5381 5381 5381 5381 5381 5381 5382 5382 5383 5384 5384 5385 5386 5386 5388 5390 5391 5392 5394 5397 5398 5400 5402 5404 5405 5407 5408 5410 5412 5413 5415 5416 5418 5421 5423 5425 5427 5430 5432 5435 5437 5440 5442 5444 5447 5448 5450 5452 5455 5457 5459 5461 5462 5465 5469
5364 5365 5365 5365 5365 5365 5366 5367 5368 5367 5367 5367 5367 5367 5367 5366 5366 5366 5367 5367 5367 5368 5368 5368 5369 5370 5370 5371 5372 5372 5373 5374 5374 5374 5374 5374 5375 5375 5376 5377 5377 5378 5378 5379 5380 5382 5383 5385 5386 5388 5389 5391 5393 5395 5397 5398 5400 5402 5403 5405 5407 5409 5410 5412 5414 5417 5420 5422 5424 5427 5429 5432 5434 5437 5439 5441 5443 5445 5447 5449 5452 5454 5455 5457 5460 5463
5354 5355 5356 5356 5355 5356 5357 5357 5358 5358 5358 5357 5357 5357 5358 5358 5358 5358 5358 5359 5359 5359 5359 5360 5361 5361 5362 5362 5363 5364 5365 5366 5366 5367 5367 5367 5368 5368 5369 5370 5371 5372 5372 5373 5374 5376 5377 5378 5380 5381 5383 5384 5386 5388 5390 5392 5393 5395 5397 5399 5401 5403 5405 5407 5408 5411 5413 5416 5418 5421 5423 5426 5428 5431 5433 5435 5437 5439 5442 5444 5446 5448 5450 5452 5455 5458
5343 5344 5346 5347 5346 5346 5346 5347 5348 5349 5348 5347 5347 5347 5348 5349 5350 5350 5350 5350 5350 5351 5351 5351 5352 5353 5354 5354 5355 5355 5357 5357 5358 5359 5360 5361 5361 5362 5362 5363 5364 5365 5366 5367 5368 5369 5371 5372 5373 5375 5376 5377 5379 5381 5383 5385 5387 5389 5391 5393 5395 5397 5399 5401 5403 5405 5407 5410 5412 5415 5417 5420 5422 5425 5427 5430 5432 5434 5437 5439 5441 5443 5445 5447 5450 5454
5334 5335 5336 5337 5337 5335 5335 5336 5338 5340 5339 5338 5337 5337 5338 5339 5340 5341 5342 5342 5342 5342 5342 5342 5343 5344 5345 5346 5347 5347 5348 5349 5351 5352 5353 5354 5354 5355 5356 5357 5358 5359 5360 5361 5362 5363 5365 5366 5367 5369 5370 5371 5373 5374 5376 5378 5380 5382 5384 5387 5389 5391 5393 5395 5397 5400 5402 5404 5407 5409 5412 5414 5417 5419 5422 5424 5427 5429 5431 5434 5436 5438 5441 5443 5446 5448
5326 5327 5326 5326 5326 5326 5325 5325 5327 5330 5331 5330 5329 5329 5329 5329 5330 5331 5332 5332 5333 5334 5334 5333 5334 5335 5337 5338 5339 5339 5340 5341 5342 5344 5345 5346 5347 5348 5349 5350 5351 5352 5354 5355 5356 5357 5359 5360 5361 5363 5364 5366 5367 5369 5370 5372 5374 5376 5378 5380 5382 5385 5387 5389 5392 5394 5396 5399 5401 5403 5406 5408 5411 5413 5416 5418 5421 5423 5426 5428 5431 5434 5436 5439 5441 5443
5317 5317 5316 5315 5315 5316 5316 5316 5317 5320 5322 5321 5321 5320 5321 5321 5320 5320 5320 5322 5324 5326 5326 5325 5326 5327 5327 5329 5331 5332 5332 5333 5334 5336 5338 5339 5340 5341 5342 5344 5345 5347 5348 5349 5350 5352 5353 5354 5356 5357 5359 5360 5362 5363 5365 5367 5368 5371 5372 5374 5376 5378 5381 5383 5386 5388 5391 5393 5396 5398 5401 5403 5405 5408 5410 5413 5415 5418 5421 5423 5426 5429 5432 5434 5436 5438
5307 5307 5306 5306 5306 5306 5307 5308 5309 5311 5312 5312 5312 5312 5312 5313 5312 5311 5310 5312 5315 5317 5317 5317 5318 5319 5320 5321 5323 5324 5325 5326 5327 5328 5330 5332 5333 5335 5336 5337 5339 5340 5342 5343 5344 5346 5347 5349 5351 5352 5354 5356 5357 5358 5360 5361 5363 5365 5367 5368 5370 5372 5374 5377 5380 5382 5385 5388 5391 5393 5395 5397 5400 5402 5405 5407 5410 5413 5415 5418 5421 5424 5427 5429 5431 5433
5297 5297 5297 5296 5297 5297 5298 5299 5300 5301 5302 5303 5302 5302 5303 5304 5305 5304 5302 5303 5305 5307 5308 5309 5310 5312 5313 5314 5315 5316 5317 5318 5319 5321 5323 5325 5327 5328 5330 5331 5333 5334 5336 5337 5338 5340 5343 5344 5346 5347 5350 5351 5353 5354 5355 5356 5357 5359 5361 5363 5364 5366 5368 5371 5374 5377 5380 5383 5385 5388 5390 5392 5395 5397 5399 5402 5405 5407 5410 5413 5416 5418 5421 5424 5426 5428
5288 5288 5287 5287 5288 5289 5290 5291 5291 5292 5293 5294 5294 5294 5294 5296 5296 5296 5296 5296 5297 5299 5300 5301 5302 5304 5306 5307 5308 5308 5309 5310 5312 5314 5316 5318 5320 5322 5323 5325 5326 5328 5329 5331 5333 5335 5337 5339 5341 5343 5345 5347 5348 5349 5350 5351 5352 5354 5355 5357 5359 5361 5363 5366 5368 5372 5375 5377 5380 5383 5385 5387 5390 5392 5394 5397 5400 5403 5405 5408 5411 5413 5416 5418 5421 5423
5280 5279 5279 5279 5281 5282 5282 5283 5283 5283 5284 5285 5286 5286 5287 5287 5288 5288 5288 5289 5290 5292 5292 5293 5294 5297 5299 5301 5301 5301 5302 5303 5304 5307 5309 5311 5313 5316 5317 5318 5320 5322 5324 5326 5328 5330 5332 5334 5336 5338 5340 5341 5342 5343 5345 5346 5347 5348 5350 5351 5353 5356 5358 5360 5363 5366 5369 5372 5375 5377 5380 5382 5385 5387 5389 5392 5395 5397 5400 5403 5405 5408 5410 5413 5415 5417
5272 5272 5272 5272 5273 5274 5275 5275 5275 5275 5276 5277 5278 5278 5279 5280 5280 5281 5281 5282 5283 5284 5285 5286 5287 5289 5292 5294 5295 5295 5296 5296 5298 5300 5302 5304 5307 5310 5311 5312 5313 5316 5319 5321 5323 5325 5327 5329 5331 5332 5334 5336 5337 5338 5339 5340 5341 5343 5344 5346 5348 5350 5352 5355 5357 5360 5363 5367 5370 5372 5375 5377 5380 5382 5384 5387 5390 5392 5395 5398 5401 5403 5405 5408 5410 5412
5267 5266 5266 5266 5267 5267 5267 5268 5268 5268 5269 5270 5271 5271 5272 5272 5273 5274 5275 5275 5276 5278 5279 5280 5282 5283 5285 5287 5289 5290 5290 5290 5291 5293 5295 5297 5301 5304 5305 5306 5307 5310 5313 5316 5317 5319 5322 5323 5325 5327 5328 5330 5331 5332 5333 5335 5336 5338 5340 5341 5343 5345 5347 5349 5352 5355 5358 5362 5365 5367 5370 5373 5375 5377 5380 5382 5385 5387 5391 5393 5396 5398 5401 5403 5405 5407
5261 5261 5261 5261 5261 5261 5261 5262 5262 5262 5262 5263 5263 5264 5265 5266 5267 5268 5269 5270 5271 5272 5272 5274 5276 5277 5278 5281 5283 5285 5285 5284 5284 5285 5288 5292 5295 5298 5300 5300 5301 5304 5307 5310 5312 5314 5315 5317 5319 5321 5323 5325 5326 5327 5328 5329 5331 5333 5335 5337 5338 5340 5342 5344 5347 5350 5353 5356 5359 5362 5365 5368 5371 5373 5375 5377 5380 5383 5386 5388 5391 5394 5396 5398 5401 5403
5256 5256 5256 5255 5254 5254 5255 5256 5256 5256 5256 5257 5257 5257 5259 5260 5261 5263 5264 5264 5265 5266 5267 5267 5269 5270 5272 5274 5277 5279 5279 5278 5278 5280 5283 5286 5290 5292 5294 5294 5295 5297 5301 5304 5306 5308 5310 5312 5314 5316 5318 5319 5321 5322 5323 5324 5326 5328 5330 5332 5334 5336 5338 5341 5343 5346 5349 5352 5355 5357 5360 5363 5366 5369 5371 5373 5375 5378 5381 5383 5386 5389 5392 5394 5397 5398
5251 5251 5251 5250 5249 5248 5249 5250 5251 5250 5250 5250 5251 5252 5254 5255 5256 5257 5257 5257 5258 5259 5260 5261 5262 5264 5266 5268 5270 5272 5273 5272 5272 5274 5277 5280 5284 5287 5288 5288 5289 5291 5295 5298 5301 5302 5304 5306 5308 5311 5312 5314 5315 5316 5318 5319 5321 5323 5325 5327 5330 5332 5334 5337 5340 5342 5345 5348 5351 5353 5356 5358 5362 5364 5367 5369 5371 5373 5376 5378 5381 5384 5387 5390 5392 5394
5246 5246 5247 5246 5245 5243 5244 5245 5245 5245 5245 5246 5247 5248 5248 5249 5249 5250 5250 5251 5252 5253 5254 5256 5257 5259 5261 5262 5264 5266 5267 5267 5267 5269 5271 5274 5278 5281 5282 5283 5283 5286 5289 5292 5295 5297 5299 5301 5303 5305 5307 5308 5310 5311 5312 5314 5317 5319 5321 5323 5325 5328 5330 5333 5336 5339 5342 5344 5347 5349 5351 5354 5357 5359 5362 5364 5367 5369 5371 5373 5376 5379 5382 5385 5387 5390
5243 5243 5243 5242 5241 5240 5239 5240 5240 5241 5241 5243 5243 5243 5242 5242 5243 5244 5245 5246 5247 5248 5249 5251 5252 5254 5255 5257 5259 5261 5262 5262 5262 5263 5266 5268 5272 5274 5277 5277 5278 5280 5283 5286 5289 5292 5294 5297 5299 5300 5302 5303 5304 5306 5308 5310 5312 5314 5317 5319 5321 5324 5326 5329 5332 5335 5337 5340 5342 5345 5347 5349 5352 5355 5357 5360 5362 5364 5366 5369 5372 5374 5377 5381 5383 5385
5241 5240 5240 5239 5238 5237 5236 5235 5236 5237 5238 5239 5237 5236 5237 5237 5238 5239 5241 5242 5243 5243 5245 5246 5247 5249 5251 5252 5254 5256 5257 5257 5257 5259 5261 5263 5266 5269 5272 5273 5274 5275 5277 5281 5285 5288 5289 5291 5292 5294 5296 5297 5299 5301 5303 5306 5308 5310 5312 5315 5317 5320 5322 5325 5328 5331 5333 5336 5338 5341 5343 5345 5347 5350 5353 5355 5358 5360 5362 5364 5367 5370 5373 5376 5378 5381
5239 5238 5237 5236 5235 5234 5233 5233 5234 5234 5234 5233 5232 5232 5232 5233 5234 5235 5236 5237 5238 5239 5240 5242 5243 5245 5247 5248 5249 5250 5252 5252 5253 5255 5257 5259 5261 5264 5267 5267 5267 5268 5271 5275 5277 5280 5282 5284 5287 5290 5292 5293 5295 5297 5299 5301 5303 5306 5308 5311 5313 5316 5319 5321 5324 5327 5329 5332 5334 5337 5339 5341 5343 5346 5348 5351 5353 5355 5357 5360 5363 5366 5369 5372 5374 5376
5237 5235 5234 5232 5232 5231 5230 5230 5231 5231 5230 5229 5228 5228 5229 5229 5230 5231 5232 5232 5233 5234 5236 5237 5239 5240 5242 5243 5245 5246 5247 5248 5249 5250 5251 5252 5255 5258 5261 5261 5262 5263 5267 5270 5272 5275 5277 5281 5283 5286 5287 5289 5291 5292 5294 5297 5299 5302 5304 5307 5310 5312 5315 5317 5320 5323 5326 5328 5330 5333 5335 5337 5339 5342 5344 5346 5349 5351 5353 5356 5359 5362 5365 5367 5370 5372
5234 5232 5231 5230 5228 5228 5227 5227 5227 5227 5226 5225 5225 5225 5225 5226 5227 5227 5228 5229 5230 5230 5231 5233 5234 5236 5237 5239 5240 5242 5243 5243 5243 5244 5245 5247 5250 5253 5256 5257 5257 5258 5262 5265 5267 5270 5273 5276 5279 5282 5283 5285 5286 5288 5290 5292 5295 5297 5300 5303 5306 5308 5311 5314 5316 5319 5322 5324 5326 5329 5331 5333 5335 5337 5340 5342 5345 5347 5349 5352 5355 5358 5361 5363 5365 5367
5232 5230 5228 5227 5226 5225 5224 5224 5224 5223 5223 5222 5222 5222 5222 5222 5223 5224 5225 5226 5226 5227 5227 5229 5230 5232 5233 5235 5237 5238 5239 5239 5240 5240 5241 5243 5245 5248 5251 5252 5252 5254 5257 5260 5263 5266 5268 5272 5275 5277 5279 5280 5282 5284 5286 5288 5291 5293 5296 5299 5302 5304 5307 5310 5312 5315 5317 5320 5322 5325 5327 5329 5332 5334 5336 5338 5341 5343 5346 5348 5351 5354 5357 5359 5361 5363
5230 5227 5226 5224 5223 5222 5222 5221 5221 5221 5220 5219 5219 5219 5219 5219 5220 5221 5222 5222 5223 5223 5225 5225 5227 5228 5229 5231 5233 5234 5235 5236 5236 5236 5237 5239 5242 5244 5246 5247 5248 5250 5253 5256 5258 5261 5264 5267 5270 5272 5274 5276 5278 5280 5282 5284 5286 5289 5292 5295 5298 5301 5304 5306 5309 5311 5314 5316 5319 5321 5323 5326 5328 5331 5333 5335 5337 5340 5342 5345 5347 5350 5353 5355 5357 5360
5228 5226 5224 5222 5221 5220 5219 5219 5218 5218 5217 5217 5217 5216 5217 5217 5217 5217 5218 5219 5220 5221 5222 5222 5223 5225 5226 5227 5229 5231 5232 5232 5232 5233 5234 5235 5237 5240 5242 5243 5245 5247 5249 5251 5254 5257 5260 5263 5265 5268 5270 5272 5274 5276 5278 5280 5282 5285 5288 5291 5294 5297 5300 5303 5305 5308 5311 5313 5316 5318 5320 5322 5325 5327 5329 5332 5334 5336 5339 5341 5344 5347 5349 5351 5354 5356
5227 5225 5223 5221 5219 5218 5217 5217 5216 5216 5215 5215 5214 5214 5214 5214 5214 5215 5216 5216 5217 5218 5218 5219 5220 5222 5222 5224 5226 5228 5229 5229 5229 5229 5230 5232 5234 5236 5238 5240 5242 5243 5245 5247 5251 5253 5256 5259 5261 5264 5266 5268 5270 5272 5274 5276 5279 5281 5284 5287 5291 5294 5297 5299 5302 5305 5307 5310 5312 5315 5317 5319 5322 5324 5326 5328 5331 5333 5335 5338 5340 5343 5345 5347 5350 5353
5226 5224 5222 5220 5218 5217 5216 5215 5214 5214 5213 5213 5212 5212 5212 5212 5212 5212 5213 5214 5215 5215 5216 5216 5217 5218 5220 5222 5223 5225 5226 5226 5226 5226 5227 5229 5231 5233 5235 5237 5238 5240 5242 5245 5247 5250 5252 5255 5257 5259 5262 5264 5266 5268 5270 5272 5275 5278 5281 5284 5287 5291 5293 5296 5299 5302 5304 5307 5309 5312 5314 5316 5318 5321 5323 5325 5327 5330 5332 5334 5337 5339 5342 5344 5347 5349
5223 5222 5220 5218 5217 5215 5214 5213 5212 5212 5211 5211 5211 5210 5210 5210 5210 5210 5211 5212 5212 5212 5213 5213 5215 5216 5217 5219 5221 5222 5223 5223 5223 5223 5224 5226 5228 5231 5232 5234 5236 5237 5239 5241 5244 5247 5249 5252 5254 5256 5258 5260 5262 5264 5267 5269 5272 5275 5278 5282 5285 5288 5291 5293 5296 5299 5301 5304 5306 5308 5311 5313 5316 5318 5320 5322 5324 5327 5329 5331 5333 5336 5338 5341 5343 5346
5221 5219 5218 5216 5215 5214 5213 5212 5211 5210 5210 5210 5209 5209 5208 5208 5208 5209 5209 5210 5210 5211 5211 5212 5212 5214 5215 5217 5218 5219 5220 5221 5221 5221 5222 5224 5227 5228 5230 5232 5233 5235 5237 5238 5240 5243 5246 5248 5250 5252 5254 5256 5258 5260 5263 5266 5269 5272 5275 5279 5282 5285 5288 5291 5293 5296 5299 5301 5303 5306 5308 5311 5313 5315 5317 5319 5322 5324 5326 5328 5331 5333 5335 5338 5340 5342
5219 5217 5216 5214 5213 5212 5211 5210 5209 5209 5208 5208 5207 5207 5207 5207 5207 5207 5207 5208 5208 5209 5210 5210 5211 5212 5213 5215 5216 5217 5218 5218 5219 5219 5221 5223 5225 5227 5228 5230 5231 5233 5234 5236 5238 5240 5242 5245 5247 5249 5251 5252 5255 5257 5260 5263 5266 5269 5272 5276 5279 5282 5286 5288 5291 5294 5296 5298 5301 5303 5306 5308 5310 5312 5315 5317 5319 5321 5323 5326 5328 5330 5332 5335 5337 5339
5217 5215 5213 5212 5211 5210 5209 5208 5207 5207 5207 5206 5206 5206 5206 5206 5206 5206 5206 5207 5207 5208 5209 5209 5210 5211 5212 5213 5214 5215 5216 5217 5217 5218 5220 5222 5223 5225 5226 5228 5229 5231 5232 5234 5236 5237 5240 5242 5244 5246 5248 5250 5252 5254 5257 5260 5263 5267 5270 5274 5277 5280 5283 5286 5289 5291 5293 5296 5298 5300 5302 5305 5307 5310 5312 5314 5317 5319 5321 5323 5325 5327 5330 5332 5334 5337
5214 5213 5212 5210 5209 5208 5207 5207 5206 5206 5205 5205 5205 5205 5205 5205 5205 5205 5205 5206 5206 5207 5207 5208 5209 5210 5211 5212 5213 5214 5214 5215 5216 5217 5218 5220 5222 5223 5225 5226 5227 5229 5230 5232 5233 5235 5237 5239 5241 5243 5245 5247 5249 5251 5254 5257 5261 5264 5268 5272 5275 5278 5281 5284 5286 5289 5291 5293 5295 5297 5300 5302 5305 5307 5309 5312 5315 5317 5319 5321 5323 5325 5327 5329 5332 5334
5212 5211 5210 5208 5207 5207 5206 5206 5205 5205 5204 5204 5204 5204 5204 5204 5204 5204 5205 5205 5205 5206 5206 5207 5207 5208 5209 5210 5212 5212 5213 5214 5215 5216 5217 5219 5221 5222 5223 5225 5226 5227 5229 5230 5232 5233 5235 5237 5239 5241 5243 5245 5247 5249 5252 5255 5259 5262 5266 5269 5273 5276 5279 5281 5284 5286 5288 5291 5292 5295 5297 5300 5302 5305 5307 5311 5313 5315 5317 5318 5320 5322 5324 5326 5328 5331
5210 5209 5208 5207 5206 5206 5205 5205 5204 5204 5204 5204 5203 5203 5203 5203 5204 5204 5204 5204 5205 5205 5206 5206 5207 5207 5208 5209 5210 5211 5212 5213 5214 5215 5216 5217 5219 5221 5222 5223 5225 5226 5227 5229 5230 5232 5234 5236 5237 5239 5241 5243 5245 5247 5250 5253 5257 5260 5263 5267 5271 5273 5276 5279 5281 5284 5286 5288 5290 5292 5295 5297 5299 5302 5305 5308 5310 5312 5313 5315 5317 5318 5321 5323 5325 5327
5208 5207 5207 5206 5205 5205 5205 5204 5204 5204 5204 5204 5203 5203 5203 5203 5203 5203 5204 5204 5204 5205 5205 5206 5206 5207 5207 5208 5209 5210 5211 5212 5213 5214 5215 5217 5218 5220 5221 5222 5224 5225 5226 5227 5229 5230 5232 5234 5236 5237 5239 5241 5243 5246 5249 5252 5255 5258 5262 5265 5268 5271 5274 5277 5279 5281 5283 5286 5288 5290 5292 5295 5298 5301 5303 5305 5307 5308 5310 5312 5313 5315 5317 5320 5322 5324
5207 5207 5206 5206 5205 5205 5205 5204 5204 5204 5204 5204 5203 5203 5203 5203 5203 5203 5204 5204 5204 5204 5205 5205 5206 5206 5207 5207 5208 5209 5210 5211 5212 5213 5215 5216 5218 5219 5221 5222 5223 5224 5225 5226 5227 5229 5231 5232 5234 5236 5238 5240 5242 5245 5247 5250 5253 5257 5260 5263 5266 5268 5271 5274 5277 5279 5281 5284 5286 5288 5290 5293 5296 5298 5300 5302 5304 5306 5307 5309 5311 5313 5315 5317 5319 5321
5207 5206 5206 5205 5205 5205 5205 5205 5204 5204 5204 5204 5203 5203 5203 5203 5203 5203 5204 5204 5204 5204 5205 5205 5206 5206 5207 5207 5208 5209 5210 5211 5212 5213 5214 5216 5217 5218 5220 5221 5222 5223 5224 5225 5226 5228 5229 5231 5233 5235 5237 5239 5241 5243 5246 5249 5252 5255 5258 5261 5263 5266 5268 5272 5274 5277 5279 5282 5284 5286 5288 5291 5293 5295 5297 5299 5301 5303 5304 5306 5308 5310 5312 5314 5316 5317
5207 5206 5206 5206 5205 5205 5205 5205 5204 5204 5204 5203 5203 5203 5203 5203 5203 5203 5203 5204 5204 5204 5205 5205 5205 5206 5206 5207 5208 5209 5210 5211 5212 5213 5214 5215 5216 5217 5219 5220 5221 5222 5223 5224 5225 5227 5228 5230 5232 5234 5236 5238 5240 5243 5245 5248 5251 5253 5256 5259 5262 5264 5267 5270 5273 5275 5277 5280 5282 5284 5286 5288 5290 5292 5294 5297 5298 5300 5301 5303 5305 5307 5309 5311 5312 5314
5207 5207 5206 5206 5206 5205 5205 5205 5204 5204 5204 5203 5203 5203 5203 5203 5203 5203 5203 5203 5204 5204 5204 5205 5205 5206 5206 5207 5207 5208 5210 5211 5212 5212 5213 5214 5216 5217 5218 5219 5220 5221 5222 5223 5225 5226 5228 5230 5232 5234 5236 5238 5240 5242 5245 5247 5250 5253 5255 5258 5261 5263 5266 5268 5271 5273 5275 5277 5280 5282 5283 5285 5287 5289 5291 5293 5295 5296 5298 5300 5302 5303 5305 5307 5309 5311
5207 5207 5207 5206 5206 5205 5205 5205 5204 5204 5204 5203 5203 5203 5203 5203 5203 5203 5203 5203 5203 5204 5204 5204 5205 5205 5206 5206 5207 5208 5209 5210 5211 5212 5213 5214 5215 5216 5217 5218 5220 5221 5222 5223 5225 5227 5228 5230 5232 5234 5236 5238 5240 5242 5245 5247 5250 5252 5255 5257 5260 5262 5264 5266 5269 5271 5273 5276 5277 5279 5281 5282 5284 5286 5288 5290 5292 5293 5295 5297 5299 5301 5302 5304 5306 5308
5208 5207 5207 5206 5206 5206 5205 5205 5204 5204 5204 5203 5203 5203 5203 5203 5203 5203 5203 5203 5203 5203 5204 5204 5204 5205 5206 5206 5207 5208 5209 5210 5211 5212 5212 5213 5214 5216 5217 5218 5220 5221 5222 5224 5226 5227 5229 5231 5232 5235 5237 5239 5241 5243 5245 5247 5249 5251 5253 5256 5258 5260 5262 5265 5267 5269 5271 5273 5275 5276 5278 5280 5282 5283 5285 5287 5289 5291 5292 5294 5296 5298 5300 5302 5304 5306
5208 5208 5207 5207 5206 5206 5205 5205 5204 5204 5203 5203 5203 5203 5203 5203 5203 5203 5203 5203 5203 5203 5203 5204 5204 5205 5205 5206 5207 5208 5208 5209 5210 5212 5212 5214 5215 5216 5217 5218 5220 5221 5223 5225 5226 5228 5230 5232 5233 5235 5237 5239 5241 5242 5244 5246 5248 5250 5252 5255 5257 5259 5262 5264 5266 5267 5269 5271 5272 5274 5276 5277 5279 5281 5282 5284 5286 5288 5290 5292 5294 5296 5297 5299 5301 5303
5208 5208 5207 5207 5207 5206 5206 5205 5204 5204 5203 5203 5202 5202 5202 5202 5202 5202 5202 5202 5203 5203 5203 5203 5204 5205 5205 5206 5207 5208 5209 5210 5211 5212 5213 5214 5215 5217 5218 5219 5220 5222 5223 5225 5227 5229 5231 5232 5234 5235 5237 5238 5240 5242 5243 5245 5247 5249 5251 5253 5256 5257 5259 5262 5264 5266 5267 5269 5270 5272 5274 5275 5277 5279 5281 5282 5284 5286 5288 5290 5292 5293 5295 5297 5298 5300
5209 5208 5207 5207 5207 5206 5206 5205 5204 5204 5203 5203 5202 5202 5202 5202 5202 5202 5202 5202 5202 5202 5203 5203 5204 5205 5206 5206 5207 5208 5209 5210 5211 5212 5213 5215 5216 5217 5218 5220 5221 5223 5224 5226 5228 5229 5231 5232 5233 5235 5236 5237 5239 5241 5242 5244 5246 5248 5250 5252 5254 5256 5258 5260 5262 5264 5266 5267 5269 5270 5272 5273 5275 5276 5278 5280 5282 5283 5285 5287 5289 5291 5292 5294 5295 5297
5209 5208 5207 5207 5206 5206 5205 5204 5204 5203 5203 5202 5202 5202 5202 5202 5202 5202 5202 5202 5202 5202 5203 5204 5204 5205 5206 5207 5208 5209 5210 5211 5212 5213 5214 5215 5217 5218 5219 5221 5222 5224 5225 5226 5227 5229 5230 5231 5232 5234 5235 5237 5238 5240 5242 5243 5245 5247 5249 5251 5253 5255 5257 5258 5260 5262 5263 5265 5267 5268 5270 5271 5272 5274 5276 5277 5279 5281 5282 5284 5286 5288 5289 5291 5292 5294
5209 5208 5207 5206 5206 5205 5204 5204 5203 5203 5202 5202 5202 5202 5202 5201 5202 5202 5202 5202 5202 5203 5203 5204 5205 5206 5207 5208 5208 5210 5211 5212 5212 5214 5215 5216 5217 5219 5220 5222 5222 5223 5225 5226 5227 5227 5229 5230 5231 5232 5234 5236 5237 5239 5241 5242 5244 5246 5248 5250 5252 5253 5254 5256 5258 5259 5261 5262 5264 5266 5267 5269 5270 5272 5273 5275 5276 5278 5280 5281 5283 5285 5287 5288 5290 5291
5209 5208 5207 5206 5205 5204 5203 5203 5202 5202 5202 5202 5202 5201 5201 5201 5202 5202 5202 5203 5203 5204 5204 5205 5206 5207 5208 5209 5210 5211 5212 5212 5214 5215 5216 5217 5218 5220 5221 5222 5222 5223 5224 5225 5226 5227 5227 5229 5230 5232 5233 5235 5237 5238 5240 5241 5243 5245 5246 5248 5250 5251 5252 5254 5255 5257 5259 5260 5262 5263 5265 5267 5268 5270 5271 5272 5274 5276 5277 5279 5281 5282 5284 5286 5287 5289